Houlton, ME

10:16 PM EDT on May 26, 2018 (GMT -0400)
Houlton International

Weather History for KHUL - January, 2014

Change the Weather History Date:

Thursday, January 9, 2014

  Actual Average Record
Temperature  
Mean Temperature 3 °F 12 °F  
Max Temperature 17 °F 23 °F 50 °F (2008)
Min Temperature -11 °F 1 °F -30 °F (1976)
Degree Days  
Heating Degree Days 62 53  
Month to date heating degree days 541 470  
Since 1 July heating degree days 4103 3990  
Cooling Degree Days 0 0  
Month to date cooling degree days 0 0  
Year to date cooling degree days 0 0  
Moisture  
Dew Point -5 °F    
Average Humidity 62    
Maximum Humidity 87    
Minimum Humidity 36    
Precipitation  
Precipitation 0.00 in 0.09 in 2.80 in (2006)
Month to date precipitation 1.12 0.82  
Year to date precipitation 1.12 0.82  
Sea Level Pressure  
Sea Level Pressure 30.39 in    
Wind  
Wind Speed 7 mph (WSW)    
Max Wind Speed 22 mph    
Max Gust Speed 32 mph    
Visibility 10 miles    
Events      
T = Trace of Precipitation, MM = Missing Value Source: NWS Daily Summary

Daily Weather History Graph

Daily Weather History Graph

Search for Another Location

Airport or City:

Astronomy

Jan. 09, 2014 Rise Set
Actual Time 7:12 AM EST 4:04 PM EST
Civil Twilight 6:38 AM EST 4:38 PM EST
Nautical Twilight 6:00 AM EST 5:16 PM EST
Astronomical Twilight 5:24 AM EST 5:52 PM EST
Moon 11:37 AM EST (1/9) 1:07 AM EST (1/9)
Length of Visible Light 10h 00m
Length of Day
8h 52m
Waxing Gibbous, 66% of the Moon is Illuminated
Jan 9
Waxing Gibbous
Jan 15
Full
Jan 24
Last Quarter
Jan 30
New
Feb 6
First Quarter

Hourly Weather History & Observations

Time (EST) Temp. Windchill Dew Point Humidity Pressure Visibility Wind Dir Wind Speed Gust Speed Precip Events Conditions
12:53 AM 12.0 °F -0.4 °F -0.9 °F 56% 30.22 in 10.0 mi West 9.2 mph 18.4 mph N/A   Clear
1:53 AM 10.9 °F 0.2 °F -0.9 °F 59% 30.24 in 10.0 mi West 6.9 mph - N/A   Clear
2:53 AM 10.0 °F 0.4 °F -0.0 °F 64% 30.25 in 10.0 mi SW 5.8 mph - N/A   Clear
3:53 AM 9.0 °F 2.4 °F -0.0 °F 67% 30.25 in 10.0 mi Variable 3.5 mph - N/A   Clear
4:53 AM 3.9 °F -5.3 °F -2.0 °F 76% 30.26 in 10.0 mi SSW 4.6 mph - N/A   Clear
5:53 AM 3.0 °F -9.3 °F -2.9 °F 76% 30.27 in 10.0 mi South 6.9 mph - N/A   Partly Cloudy
6:53 AM -0.9 °F -8.9 °F -5.1 °F 83% 30.29 in 10.0 mi South 3.5 mph - N/A   Clear
7:53 AM 1.9 °F -7.6 °F -2.9 °F 80% 30.32 in 10.0 mi SSW 4.6 mph - N/A   Clear
8:53 AM 10.0 °F -1.9 °F 1.0 °F 67% 30.35 in 10.0 mi West 8.1 mph - N/A   Clear
9:53 AM 14.0 °F 1.2 °F 1.9 °F 59% 30.36 in 10.0 mi West 10.4 mph - N/A   Clear
10:53 AM 16.0 °F 0.6 °F -0.0 °F 49% 30.36 in 10.0 mi WNW 16.1 mph 25.3 mph N/A   Scattered Clouds
11:53 AM 16.0 °F 0.1 °F -0.9 °F 47% 30.36 in 10.0 mi West 17.3 mph 28.8 mph N/A   Overcast
12:53 PM 16.0 °F 2.3 °F -2.0 °F 45% 30.38 in 10.0 mi NW 12.7 mph 20.7 mph N/A   Mostly Cloudy
1:53 PM 17.1 °F 1.5 °F -5.1 °F 37% 30.41 in 10.0 mi NW 17.3 mph 23.0 mph N/A   Clear
2:53 PM 16.0 °F 3.6 °F -5.1 °F 39% 30.44 in 10.0 mi NW 10.4 mph 19.6 mph N/A   Clear
3:53 PM 15.1 °F 6.4 °F -7.1 °F 37% 30.48 in 10.0 mi NW 5.8 mph - N/A   Clear
4:53 PM 10.9 °F 2.9 °F -6.0 °F 47% 30.50 in 10.0 mi West 4.6 mph - N/A   Clear
6:53 PM 5.0 °F - -7.1 °F 58% 30.55 in 10.0 mi Calm Calm - N/A   Clear
7:53 PM -4.0 °F - -9.9 °F 76% 30.56 in 10.0 mi Calm Calm - N/A   Clear
8:53 PM -7.1 °F - -11.9 °F 79% 30.57 in 10.0 mi Calm Calm - N/A   Clear
9:53 PM -6.0 °F - -11.0 °F 79% 30.56 in 10.0 mi Calm Calm - N/A   Clear
10:53 PM -11.0 °F - -16.1 °F 78% 30.55 in 10.0 mi Calm Calm - N/A   Clear
11:53 PM -11.0 °F -20.4 °F -15.0 °F 83% 30.53 in 10.0 mi South 3.5 mph - N/A   Clear